Details From LOWW - Wien Schwechat
To LJLJ - Ljubljana
Flight Number -
Tags Generated
Created
Modified
Stats Distance 143 nm / 265 km
Max Altitude 0 ft / 0 m
Waypoints 2
Social Downloads 10
Likes 0
Share VATSIM

Download

Looking for another format? Having issues loading an existing format? Contact us
Advertisement - Login to hide

Notes

Generated

Route

LOWW LJLJ

ID Type Via Altitude Latitude Longitude Leg Dist Tot Dist Heading (true) Name
O LOWW APT - 0 ft / 0 m 48.11978˚ 16.57818˚ - 0 nm - -
O LJLJ APT - 0 ft / 0 m 46.23249˚ 14.44039˚ 143 nm 143 nm 218° / 217° -

Altitude Profile

Advertisement - Login to hide

LOWW

Details ICAO LOWW (VIE)
Name Wien Schwechat
Region Austria
Timezone Europe/Vienna (UTC+2.0)
Stats Elevation 600 ft / 183 m (AMSL)
Location 48.110068° 16.569637°
Runways 2
Magnetic Variation 4.172° E

METAR

LOWW 300420Z 31008KT CAVOK 14/05 Q1025 NOSIG

Decode

TAF

TAF LOWW 292315Z 3000/3106 30010KT CAVOK TX18/3012Z TN08/3100Z TEMPO 3005/3016 31015KT 9999 FEW040 BKN060 BECMG 3018/3020 VRB02KT BECMG 3103/3105 14008KT

Decode

Departure Runways

ID Width Length Bearing (true) Bearing (mag) Surface Threshold Offset Overrun Length
11 148 ft / 45 m 11,457 ft / 3,492 m 115.99° 111.82° Asphalt 0 ft / 0 m 0 ft / 0 m
16 148 ft / 45 m 11,811 ft / 3,600 m 164.23° 160.06° Asphalt 0 ft / 0 m 33 ft / 10 m
29 148 ft / 45 m 11,457 ft / 3,492 m 296.03° 291.86° Asphalt 0 ft / 0 m 0 ft / 0 m
34 148 ft / 45 m 11,811 ft / 3,600 m 344.24° 340.07° Asphalt 0 ft / 0 m 0 ft / 0 m

LJLJ

Details ICAO LJLJ (LJU)
Name LJUBLJANA
Region Slovenia
Timezone Europe/Ljubljana (UTC+2.0)
Stats Elevation 1,273 ft / 388 m (AMSL)
Location 46.223685° 14.457608°
Runways 1
Magnetic Variation 3.580° E

METAR

LJLJ 300430Z VRB02KT CAVOK 02/M00 Q1026 NOSIG

Decode

TAF

TAF LJLJ 300200Z 3003/3103 VRB02KT CAVOK BECMG 3008/3010 12005KT FEW070 BECMG 3018/3020 VRB02KT CAVOK

Decode

Destination Runways

ID Width Length Bearing (true) Bearing (mag) Surface Threshold Offset Overrun Length
13 148 ft / 45 m 10,811 ft / 3,295 m 126.47° 122.89° Asphalt 0 ft / 0 m 0 ft / 0 m
31 148 ft / 45 m 10,811 ft / 3,295 m 306.49° 302.91° Asphalt 0 ft / 0 m 0 ft / 0 m

Approach Navaids

Runway Type Ident Frequency Range Bearing (true) Bearing (mag) Slope Elevation
31 Localiser LJB 110.50 MHz 18 nm / 33 km 306.46° 302.88° - 1,282 ft / 391 m (AMSL)
31 Glidescope LJB 110.50 MHz 10 nm / 19 km 306.48° 302.90° 3.00° 1,198 ft / 365 m (AMSL)
31 DME LJB 110.50 MHz 18 nm / 33 km - - - 1,198 ft / 365 m (AMSL)

Popular Alternatives